Time,TemperatureF,DewpointF,PressureIn,WindDirection,WindDirectionDegrees,WindSpeedMPH,WindSpeedGustMPH,Humidity,HourlyPrecipIn,Conditions,Clouds,dailyrainin,SoftwareType,DateUTC
2013-01-31 00:00:00,57.6,57.4,28.97,North,-999,-999.0,-999.0,99,-99.99,,,-99.99,Homeseer,2013-01-31 05:00:00,
2013-01-31 00:03:00,57.9,57.7,28.97,North,-999,-999.0,-999.0,99,-99.99,,,-99.99,Homeseer,2013-01-31 05:03:00,
2013-01-31 00:04:00,58.1,57.9,28.97,North,-999,-999.0,-999.0,99,-99.99,,,-99.99,Homeseer,2013-01-31 05:04:00,
2013-01-31 00:09:00,58.2,58.2,28.96,North,-999,-999.0,-999.0,100,-99.99,,,-99.99,Homeseer,2013-01-31 05:09:00,
2013-01-31 00:11:00,58.1,58.1,28.95,North,-999,-999.0,-999.0,100,-99.99,,,-99.99,Homeseer,2013-01-31 05:11:00,
2013-01-31 00:16:00,58.3,58.3,28.95,North,-999,-999.0,-999.0,100,-99.99,,,-99.99,Homeseer,2013-01-31 05:16:00,
2013-01-31 00:21:00,58.9,58.9,28.95,North,-999,-999.0,-999.0,100,-99.99,,,-99.99,Homeseer,2013-01-31 05:21:00,
2013-01-31 00:26:00,58.9,58.7,28.93,North,-999,-999.0,-999.0,99,-99.99,,,-99.99,Homeseer,2013-01-31 05:26:00,
2013-01-31 00:31:00,58.8,58.4,28.92,North,-999,-999.0,-999.0,98,-99.99,,,-99.99,Homeseer,2013-01-31 05:31:00,
2013-01-31 00:36:00,59.1,58.7,28.91,North,-999,-999.0,-999.0,98,-99.99,,,-99.99,Homeseer,2013-01-31 05:36:00,
2013-01-31 00:41:00,59.0,58.8,28.91,North,-999,-999.0,-999.0,99,-99.99,,,-99.99,Homeseer,2013-01-31 05:41:00,
2013-01-31 00:46:00,59.0,58.4,28.89,North,-999,-999.0,-999.0,97,-99.99,,,-99.99,Homeseer,2013-01-31 05:46:00,
2013-01-31 00:52:00,59.2,59.2,28.89,North,-999,-999.0,-999.0,100,-99.99,,,-99.99,Homeseer,2013-01-31 05:52:00,
2013-01-31 00:57:00,59.7,59.5,28.88,North,-999,-999.0,-999.0,99,-99.99,,,-99.99,Homeseer,2013-01-31 05:57:00,
2013-01-31 01:03:00,59.6,58.9,28.87,North,-999,-999.0,-999.0,97,-99.99,,,-99.99,Homeseer,2013-01-31 06:03:00,
2013-01-31 01:08:00,59.3,58.9,28.85,North,-999,-999.0,-999.0,98,-99.99,,,-99.99,Homeseer,2013-01-31 06:08:00,
2013-01-31 01:13:00,59.8,59.4,28.85,North,-999,-999.0,-999.0,98,-99.99,,,-99.99,Homeseer,2013-01-31 06:13:00,
2013-01-31 01:18:00,59.9,59.0,28.85,North,-999,-999.0,-999.0,96,-99.99,,,-99.99,Homeseer,2013-01-31 06:18:00,
2013-01-31 01:23:00,60.1,59.4,28.84,North,-999,-999.0,-999.0,97,-99.99,,,-99.99,Homeseer,2013-01-31 06:23:00,
2013-01-31 01:28:00,60.0,59.6,28.83,North,-999,-999.0,-999.0,98,-99.99,,,-99.99,Homeseer,2013-01-31 06:28:00,
2013-01-31 01:33:00,60.1,59.4,28.83,North,-999,-999.0,-999.0,97,-99.99,,,-99.99,Homeseer,2013-01-31 06:33:00,
2013-01-31 01:38:00,60.1,59.2,28.83,North,-999,-999.0,-999.0,96,-99.99,,,-99.99,Homeseer,2013-01-31 06:38:00,
2013-01-31 01:43:00,60.2,59.1,28.81,North,-999,-999.0,-999.0,95,-99.99,,,-99.99,Homeseer,2013-01-31 06:43:00,
2013-01-31 01:48:00,60.5,59.2,28.81,North,-999,-999.0,-999.0,94,-99.99,,,-99.99,Homeseer,2013-01-31 06:48:00,
2013-01-31 01:53:00,60.7,59.8,28.81,North,-999,-999.0,-999.0,96,-99.99,,,-99.99,Homeseer,2013-01-31 06:53:00,
2013-01-31 01:58:00,60.6,59.5,28.80,North,-999,-999.0,-999.0,95,-99.99,,,-99.99,Homeseer,2013-01-31 06:58:00,
2013-01-31 02:03:00,60.6,59.7,28.78,North,-999,-999.0,-999.0,96,-99.99,,,-99.99,Homeseer,2013-01-31 07:03:00,
2013-01-31 02:08:00,60.8,59.9,28.78,North,-999,-999.0,-999.0,96,-99.99,,,-99.99,Homeseer,2013-01-31 07:08:00,
2013-01-31 02:13:00,60.7,59.4,28.78,North,-999,-999.0,-999.0,94,-99.99,,,-99.99,Homeseer,2013-01-31 07:13:00,
2013-01-31 02:18:00,60.4,59.7,28.77,North,-999,-999.0,-999.0,97,-99.99,,,-99.99,Homeseer,2013-01-31 07:18:00,
2013-01-31 02:23:00,60.5,59.8,28.77,North,-999,-999.0,-999.0,97,-99.99,,,-99.99,Homeseer,2013-01-31 07:23:00,
2013-01-31 02:28:00,60.6,59.5,28.75,North,-999,-999.0,-999.0,95,-99.99,,,-99.99,Homeseer,2013-01-31 07:28:00,
2013-01-31 02:33:00,60.5,59.8,28.73,North,-999,-999.0,-999.0,97,-99.99,,,-99.99,Homeseer,2013-01-31 07:33:00,
2013-01-31 02:38:00,60.6,59.9,28.72,North,-999,-999.0,-999.0,97,-99.99,,,-99.99,Homeseer,2013-01-31 07:38:00,
2013-01-31 02:44:00,60.7,60.0,28.71,North,-999,-999.0,-999.0,97,-99.99,,,-99.99,Homeseer,2013-01-31 07:44:00,
2013-01-31 02:49:00,60.6,59.9,28.69,North,-999,-999.0,-999.0,97,-99.99,,,-99.99,Homeseer,2013-01-31 07:49:00,
2013-01-31 02:54:00,60.8,60.4,28.69,North,-999,-999.0,-999.0,98,-99.99,,,-99.99,Homeseer,2013-01-31 07:54:00,
2013-01-31 02:59:00,61.0,60.1,28.66,North,-999,-999.0,-999.0,96,-99.99,,,-99.99,Homeseer,2013-01-31 07:59:00,
2013-01-31 03:04:00,60.7,59.8,28.65,North,-999,-999.0,-999.0,96,-99.99,,,-99.99,Homeseer,2013-01-31 08:04:00,
2013-01-31 03:09:00,60.9,60.5,28.64,North,-999,-999.0,-999.0,98,-99.99,,,-99.99,Homeseer,2013-01-31 08:09:00,
2013-01-31 03:14:00,61.2,60.5,28.64,North,-999,-999.0,-999.0,97,-99.99,,,-99.99,Homeseer,2013-01-31 08:14:00,
2013-01-31 03:19:00,61.5,60.8,28.63,North,-999,-999.0,-999.0,97,-99.99,,,-99.99,Homeseer,2013-01-31 08:19:00,
2013-01-31 03:24:00,61.6,60.7,28.62,North,-999,-999.0,-999.0,96,-99.99,,,-99.99,Homeseer,2013-01-31 08:24:00,
2013-01-31 03:29:00,61.8,60.7,28.61,North,-999,-999.0,-999.0,95,-99.99,,,-99.99,Homeseer,2013-01-31 08:29:00,
2013-01-31 03:34:00,61.8,60.7,28.59,North,-999,-999.0,-999.0,95,-99.99,,,-99.99,Homeseer,2013-01-31 08:34:00,
2013-01-31 03:39:00,61.7,60.8,28.59,North,-999,-999.0,-999.0,96,-99.99,,,-99.99,Homeseer,2013-01-31 08:39:00,
2013-01-31 03:44:00,61.8,60.7,28.58,North,-999,-999.0,-999.0,95,-99.99,,,-99.99,Homeseer,2013-01-31 08:44:00,
2013-01-31 03:49:00,61.9,60.8,28.57,North,-999,-999.0,-999.0,95,-99.99,,,-99.99,Homeseer,2013-01-31 08:49:00,
2013-01-31 03:54:00,61.7,60.1,28.55,North,-999,-999.0,-999.0,93,-99.99,,,-99.99,Homeseer,2013-01-31 08:54:00,
2013-01-31 03:59:00,61.8,60.5,28.56,North,-999,-999.0,-999.0,94,-99.99,,,-99.99,Homeseer,2013-01-31 08:59:00,
2013-01-31 04:04:00,61.9,60.6,28.54,North,-999,-999.0,-999.0,94,-99.99,,,-99.99,Homeseer,2013-01-31 09:04:00,
2013-01-31 04:09:00,62.0,60.4,28.53,North,-999,-999.0,-999.0,93,-99.99,,,-99.99,Homeseer,2013-01-31 09:09:00,
2013-01-31 04:14:00,62.3,61.0,28.51,North,-999,-999.0,-999.0,94,-99.99,,,-99.99,Homeseer,2013-01-31 09:14:00,
2013-01-31 04:19:00,62.0,60.7,28.51,North,-999,-999.0,-999.0,94,-99.99,,,-99.99,Homeseer,2013-01-31 09:19:00,
2013-01-31 04:25:00,62.0,60.7,28.51,North,-999,-999.0,-999.0,94,-99.99,,,-99.99,Homeseer,2013-01-31 09:25:00,
2013-01-31 04:30:00,61.8,60.7,28.49,North,-999,-999.0,-999.0,95,-99.99,,,-99.99,Homeseer,2013-01-31 09:30:00,
2013-01-31 04:35:00,62.2,60.9,28.50,North,-999,-999.0,-999.0,94,-99.99,,,-99.99,Homeseer,2013-01-31 09:35:00,
2013-01-31 04:40:00,61.9,61.0,28.49,North,-999,-999.0,-999.0,96,-99.99,,,-99.99,Homeseer,2013-01-31 09:40:00,
2013-01-31 04:45:00,62.0,60.9,28.48,North,-999,-999.0,-999.0,95,-99.99,,,-99.99,Homeseer,2013-01-31 09:45:00,
2013-01-31 04:50:00,61.8,60.5,28.47,North,-999,-999.0,-999.0,94,-99.99,,,-99.99,Homeseer,2013-01-31 09:50:00,
2013-01-31 04:55:00,61.5,60.8,28.46,North,-999,-999.0,-999.0,97,-99.99,,,-99.99,Homeseer,2013-01-31 09:55:00,
2013-01-31 05:00:00,61.6,60.5,28.47,North,-999,-999.0,-999.0,95,-99.99,,,-99.99,Homeseer,2013-01-31 10:00:00,
2013-01-31 05:05:00,62.0,61.1,28.45,North,-999,-999.0,-999.0,96,-99.99,,,-99.99,Homeseer,2013-01-31 10:05:00,
2013-01-31 05:10:00,61.7,60.8,28.43,North,-999,-999.0,-999.0,96,-99.99,,,-99.99,Homeseer,2013-01-31 10:10:00,
2013-01-31 05:15:00,61.8,61.1,28.43,North,-999,-999.0,-999.0,97,-99.99,,,-99.99,Homeseer,2013-01-31 10:15:00,
2013-01-31 05:20:00,61.9,61.0,28.42,North,-999,-999.0,-999.0,96,-99.99,,,-99.99,Homeseer,2013-01-31 10:20:00,
2013-01-31 05:25:00,61.9,61.2,28.41,North,-999,-999.0,-999.0,97,-99.99,,,-99.99,Homeseer,2013-01-31 10:25:00,
2013-01-31 05:30:00,61.8,60.9,28.39,North,-999,-999.0,-999.0,96,-99.99,,,-99.99,Homeseer,2013-01-31 10:30:00,
2013-01-31 05:35:00,61.8,61.1,28.36,North,-999,-999.0,-999.0,97,-99.99,,,-99.99,Homeseer,2013-01-31 10:35:00,
2013-01-31 05:40:00,61.9,61.0,28.34,North,-999,-999.0,-999.0,96,-99.99,,,-99.99,Homeseer,2013-01-31 10:40:00,
2013-01-31 05:45:00,61.6,60.9,28.33,North,-999,-999.0,-999.0,97,-99.99,,,-99.99,Homeseer,2013-01-31 10:45:00,
2013-01-31 05:50:00,61.5,60.8,28.33,North,-999,-999.0,-999.0,97,-99.99,,,-99.99,Homeseer,2013-01-31 10:50:00,
2013-01-31 05:55:00,61.6,60.9,28.33,North,-999,-999.0,-999.0,97,-99.99,,,-99.99,Homeseer,2013-01-31 10:55:00,
2013-01-31 06:00:00,61.5,60.8,28.33,North,-999,-999.0,-999.0,97,-99.99,,,-99.99,Homeseer,2013-01-31 11:00:00,
2013-01-31 06:05:00,61.6,60.9,28.33,North,-999,-999.0,-999.0,97,-99.99,,,-99.99,Homeseer,2013-01-31 11:05:00,
2013-01-31 06:10:00,61.8,61.1,28.33,North,-999,-999.0,-999.0,97,-99.99,,,-99.99,Homeseer,2013-01-31 11:10:00,
2013-01-31 06:15:00,61.7,61.3,28.33,North,-999,-999.0,-999.0,98,-99.99,,,-99.99,Homeseer,2013-01-31 11:15:00,
2013-01-31 06:20:00,61.8,60.9,28.34,North,-999,-999.0,-999.0,96,-99.99,,,-99.99,Homeseer,2013-01-31 11:20:00,
2013-01-31 06:25:00,61.8,61.4,28.35,North,-999,-999.0,-999.0,98,-99.99,,,-99.99,Homeseer,2013-01-31 11:25:00,
2013-01-31 06:30:00,61.9,61.2,28.36,North,-999,-999.0,-999.0,97,-99.99,,,-99.99,Homeseer,2013-01-31 11:30:00,
2013-01-31 06:35:00,61.9,61.0,28.37,North,-999,-999.0,-999.0,96,-99.99,,,-99.99,Homeseer,2013-01-31 11:35:00,
2013-01-31 06:40:00,62.2,61.3,28.37,North,-999,-999.0,-999.0,96,-99.99,,,-99.99,Homeseer,2013-01-31 11:40:00,
2013-01-31 06:45:00,62.0,60.9,28.37,North,-999,-999.0,-999.0,95,-99.99,,,-99.99,Homeseer,2013-01-31 11:45:00,
2013-01-31 06:50:00,61.9,61.0,28.37,North,-999,-999.0,-999.0,96,-99.99,,,-99.99,Homeseer,2013-01-31 11:50:00,
2013-01-31 06:55:00,61.9,61.0,28.39,North,-999,-999.0,-999.0,96,-99.99,,,-99.99,Homeseer,2013-01-31 11:55:00,
2013-01-31 07:00:00,61.5,60.4,28.37,North,-999,-999.0,-999.0,95,-99.99,,,-99.99,Homeseer,2013-01-31 12:00:00,
2013-01-31 07:05:00,61.4,60.1,28.36,North,-999,-999.0,-999.0,94,-99.99,,,-99.99,Homeseer,2013-01-31 12:05:00,
2013-01-31 07:10:00,60.9,59.8,28.36,North,-999,-999.0,-999.0,95,-99.99,,,-99.99,Homeseer,2013-01-31 12:10:00,
2013-01-31 07:15:00,60.8,59.5,28.35,North,-999,-999.0,-999.0,94,-99.99,,,-99.99,Homeseer,2013-01-31 12:15:00,
2013-01-31 07:20:00,60.6,59.3,28.35,North,-999,-999.0,-999.0,94,-99.99,,,-99.99,Homeseer,2013-01-31 12:20:00,
2013-01-31 07:25:00,60.2,58.9,28.32,North,-999,-999.0,-999.0,94,-99.99,,,-99.99,Homeseer,2013-01-31 12:25:00,
2013-01-31 07:30:00,60.0,58.9,28.30,North,-999,-999.0,-999.0,95,-99.99,,,-99.99,Homeseer,2013-01-31 12:30:00,
2013-01-31 07:35:00,59.9,58.8,28.30,North,-999,-999.0,-999.0,95,-99.99,,,-99.99,Homeseer,2013-01-31 12:35:00,
2013-01-31 07:40:00,59.8,58.5,28.30,North,-999,-999.0,-999.0,94,-99.99,,,-99.99,Homeseer,2013-01-31 12:40:00,
2013-01-31 07:45:00,59.8,58.7,28.31,North,-999,-999.0,-999.0,95,-99.99,,,-99.99,Homeseer,2013-01-31 12:45:00,
2013-01-31 07:50:00,59.6,58.1,28.30,North,-999,-999.0,-999.0,93,-99.99,,,-99.99,Homeseer,2013-01-31 12:50:00,
2013-01-31 07:55:00,59.2,57.9,28.29,North,-999,-999.0,-999.0,94,-99.99,,,-99.99,Homeseer,2013-01-31 12:55:00,
2013-01-31 08:00:00,59.1,57.8,28.28,North,-999,-999.0,-999.0,94,-99.99,,,-99.99,Homeseer,2013-01-31 13:00:00,
2013-01-31 08:05:00,59.2,57.7,28.27,North,-999,-999.0,-999.0,93,-99.99,,,-99.99,Homeseer,2013-01-31 13:05:00,
2013-01-31 08:10:00,59.3,57.8,28.28,North,-999,-999.0,-999.0,93,-99.99,,,-99.99,Homeseer,2013-01-31 13:10:00,
2013-01-31 08:15:00,59.1,57.3,28.27,North,-999,-999.0,-999.0,92,-99.99,,,-99.99,Homeseer,2013-01-31 13:15:00,
2013-01-31 08:20:00,59.1,57.3,28.26,North,-999,-999.0,-999.0,92,-99.99,,,-99.99,Homeseer,2013-01-31 13:20:00,
2013-01-31 08:25:00,59.3,57.5,28.27,North,-999,-999.0,-999.0,92,-99.99,,,-99.99,Homeseer,2013-01-31 13:25:00,
2013-01-31 08:30:00,59.7,57.7,28.28,North,-999,-999.0,-999.0,91,-99.99,,,-99.99,Homeseer,2013-01-31 13:30:00,
2013-01-31 08:35:00,59.7,57.2,28.27,North,-999,-999.0,-999.0,89,-99.99,,,-99.99,Homeseer,2013-01-31 13:35:00,
2013-01-31 08:40:00,60.0,57.5,28.27,North,-999,-999.0,-999.0,89,-99.99,,,-99.99,Homeseer,2013-01-31 13:40:00,
2013-01-31 08:45:00,59.8,57.1,28.28,North,-999,-999.0,-999.0,88,-99.99,,,-99.99,Homeseer,2013-01-31 13:45:00,
2013-01-31 08:50:00,59.7,57.0,28.27,North,-999,-999.0,-999.0,88,-99.99,,,-99.99,Homeseer,2013-01-31 13:50:00,
2013-01-31 08:55:00,59.7,57.0,28.25,North,-999,-999.0,-999.0,88,-99.99,,,-99.99,Homeseer,2013-01-31 13:55:00,
2013-01-31 09:00:00,59.6,56.6,28.27,North,-999,-999.0,-999.0,87,-99.99,,,-99.99,Homeseer,2013-01-31 14:00:00,
2013-01-31 09:05:00,59.8,56.8,28.31,North,-999,-999.0,-999.0,87,-99.99,,,-99.99,Homeseer,2013-01-31 14:05:00,
2013-01-31 09:11:00,54.7,50.9,28.36,North,-999,-999.0,-999.0,83,-99.99,,,-99.99,Homeseer,2013-01-31 14:11:00,
2013-01-31 09:16:00,51.2,48.4,28.38,North,-999,-999.0,-999.0,87,-99.99,,,-99.99,Homeseer,2013-01-31 14:16:00,
2013-01-31 09:21:00,49.1,47.0,28.40,North,-999,-999.0,-999.0,90,-99.99,,,-99.99,Homeseer,2013-01-31 14:21:00,
2013-01-31 09:26:00,48.0,45.9,28.40,North,-999,-999.0,-999.0,90,-99.99,,,-99.99,Homeseer,2013-01-31 14:26:00,
2013-01-31 09:31:00,47.2,45.4,28.41,North,-999,-999.0,-999.0,91,-99.99,,,-99.99,Homeseer,2013-01-31 14:31:00,
2013-01-31 09:36:00,47.0,45.2,28.42,North,-999,-999.0,-999.0,91,-99.99,,,-99.99,Homeseer,2013-01-31 14:36:00,
2013-01-31 09:41:00,46.6,44.8,28.43,North,-999,-999.0,-999.0,91,-99.99,,,-99.99,Homeseer,2013-01-31 14:41:00,
2013-01-31 09:46:00,46.5,44.5,28.45,North,-999,-999.0,-999.0,90,-99.99,,,-99.99,Homeseer,2013-01-31 14:46:00,
2013-01-31 09:51:00,46.1,43.8,28.45,North,-999,-999.0,-999.0,89,-99.99,,,-99.99,Homeseer,2013-01-31 14:51:00,
2013-01-31 09:56:00,46.2,44.4,28.46,North,-999,-999.0,-999.0,91,-99.99,,,-99.99,Homeseer,2013-01-31 14:56:00,
2013-01-31 10:01:00,46.1,44.1,28.46,North,-999,-999.0,-999.0,90,-99.99,,,-99.99,Homeseer,2013-01-31 15:01:00,
2013-01-31 10:06:00,45.3,43.3,28.46,North,-999,-999.0,-999.0,90,-99.99,,,-99.99,Homeseer,2013-01-31 15:06:00,
2013-01-31 10:11:00,45.0,43.0,28.46,North,-999,-999.0,-999.0,90,-99.99,,,-99.99,Homeseer,2013-01-31 15:11:00,
2013-01-31 10:16:00,45.2,43.2,28.47,North,-999,-999.0,-999.0,90,-99.99,,,-99.99,Homeseer,2013-01-31 15:16:00,
2013-01-31 10:21:00,45.4,42.9,28.46,North,-999,-999.0,-999.0,88,-99.99,,,-99.99,Homeseer,2013-01-31 15:21:00,
2013-01-31 10:26:00,46.0,43.7,28.47,North,-999,-999.0,-999.0,89,-99.99,,,-99.99,Homeseer,2013-01-31 15:26:00,
2013-01-31 10:31:00,46.5,43.6,28.48,North,-999,-999.0,-999.0,86,-99.99,,,-99.99,Homeseer,2013-01-31 15:31:00,
2013-01-31 10:36:00,47.0,43.6,28.50,North,-999,-999.0,-999.0,84,-99.99,,,-99.99,Homeseer,2013-01-31 15:36:00,
2013-01-31 10:41:00,47.4,44.5,28.51,North,-999,-999.0,-999.0,86,-99.99,,,-99.99,Homeseer,2013-01-31 15:41:00,
2013-01-31 10:46:00,47.3,43.4,28.51,North,-999,-999.0,-999.0,82,-99.99,,,-99.99,Homeseer,2013-01-31 15:46:00,
2013-01-31 10:51:00,47.4,43.1,28.53,North,-999,-999.0,-999.0,80,-99.99,,,-99.99,Homeseer,2013-01-31 15:51:00,
2013-01-31 10:56:00,47.6,43.0,28.54,North,-999,-999.0,-999.0,79,-99.99,,,-99.99,Homeseer,2013-01-31 15:56:00,
2013-01-31 11:01:00,47.3,42.0,28.55,North,-999,-999.0,-999.0,76,-99.99,,,-99.99,Homeseer,2013-01-31 16:01:00,
2013-01-31 11:07:00,47.4,42.1,28.55,North,-999,-999.0,-999.0,76,-99.99,,,-99.99,Homeseer,2013-01-31 16:07:00,
2013-01-31 11:12:00,48.1,42.0,28.56,North,-999,-999.0,-999.0,73,-99.99,,,-99.99,Homeseer,2013-01-31 16:12:00,
2013-01-31 11:17:00,47.5,40.6,28.57,North,-999,-999.0,-999.0,70,-99.99,,,-99.99,Homeseer,2013-01-31 16:17:00,
2013-01-31 11:22:00,47.0,39.6,28.58,North,-999,-999.0,-999.0,68,-99.99,,,-99.99,Homeseer,2013-01-31 16:22:00,
2013-01-31 11:27:00,46.6,38.4,28.57,North,-999,-999.0,-999.0,65,-99.99,,,-99.99,Homeseer,2013-01-31 16:27:00,
2013-01-31 11:32:00,46.3,38.1,28.58,North,-999,-999.0,-999.0,65,-99.99,,,-99.99,Homeseer,2013-01-31 16:32:00,
2013-01-31 11:37:00,46.1,38.8,28.59,North,-999,-999.0,-999.0,68,-99.99,,,-99.99,Homeseer,2013-01-31 16:37:00,
2013-01-31 11:42:00,45.8,37.4,28.59,North,-999,-999.0,-999.0,64,-99.99,,,-99.99,Homeseer,2013-01-31 16:42:00,
2013-01-31 11:47:00,45.7,37.8,28.59,North,-999,-999.0,-999.0,66,-99.99,,,-99.99,Homeseer,2013-01-31 16:47:00,
2013-01-31 11:52:00,46.0,37.5,28.60,North,-999,-999.0,-999.0,64,-99.99,,,-99.99,Homeseer,2013-01-31 16:52:00,
2013-01-31 11:57:00,45.8,36.8,28.63,North,-999,-999.0,-999.0,62,-99.99,,,-99.99,Homeseer,2013-01-31 16:57:00,
2013-01-31 12:02:00,46.1,37.1,28.61,North,-999,-999.0,-999.0,62,-99.99,,,-99.99,Homeseer,2013-01-31 17:02:00,
2013-01-31 12:07:00,46.5,37.4,28.62,North,-999,-999.0,-999.0,62,-99.99,,,-99.99,Homeseer,2013-01-31 17:07:00,
2013-01-31 12:12:00,46.6,36.6,28.62,North,-999,-999.0,-999.0,59,-99.99,,,-99.99,Homeseer,2013-01-31 17:12:00,
2013-01-31 12:17:00,46.8,36.8,28.62,North,-999,-999.0,-999.0,59,-99.99,,,-99.99,Homeseer,2013-01-31 17:17:00,
2013-01-31 12:22:00,46.8,36.5,28.61,North,-999,-999.0,-999.0,58,-99.99,,,-99.99,Homeseer,2013-01-31 17:22:00,
2013-01-31 12:27:00,47.1,36.8,28.62,North,-999,-999.0,-999.0,58,-99.99,,,-99.99,Homeseer,2013-01-31 17:27:00,
2013-01-31 12:32:00,47.6,36.9,28.63,North,-999,-999.0,-999.0,57,-99.99,,,-99.99,Homeseer,2013-01-31 17:32:00,
2013-01-31 12:37:00,48.0,37.0,28.63,North,-999,-999.0,-999.0,56,-99.99,,,-99.99,Homeseer,2013-01-31 17:37:00,
2013-01-31 12:42:00,48.1,36.4,28.63,North,-999,-999.0,-999.0,54,-99.99,,,-99.99,Homeseer,2013-01-31 17:42:00,
2013-01-31 12:47:00,47.8,36.1,28.63,North,-999,-999.0,-999.0,54,-99.99,,,-99.99,Homeseer,2013-01-31 17:47:00,
2013-01-31 12:52:00,47.0,36.4,28.64,North,-999,-999.0,-999.0,57,-99.99,,,-99.99,Homeseer,2013-01-31 17:52:00,
2013-01-31 12:57:00,47.2,35.6,28.63,North,-999,-999.0,-999.0,54,-99.99,,,-99.99,Homeseer,2013-01-31 17:57:00,
2013-01-31 13:02:00,47.6,35.9,28.64,North,-999,-999.0,-999.0,54,-99.99,,,-99.99,Homeseer,2013-01-31 18:02:00,
2013-01-31 13:07:00,47.9,35.9,28.65,North,-999,-999.0,-999.0,53,-99.99,,,-99.99,Homeseer,2013-01-31 18:07:00,
2013-01-31 13:12:00,47.0,34.3,28.65,North,-999,-999.0,-999.0,51,-99.99,,,-99.99,Homeseer,2013-01-31 18:12:00,
2013-01-31 13:17:00,47.4,35.4,28.65,North,-999,-999.0,-999.0,53,-99.99,,,-99.99,Homeseer,2013-01-31 18:17:00,
2013-01-31 13:22:00,48.0,36.0,28.67,North,-999,-999.0,-999.0,53,-99.99,,,-99.99,Homeseer,2013-01-31 18:22:00,
2013-01-31 13:27:00,47.2,35.2,28.68,North,-999,-999.0,-999.0,53,-99.99,,,-99.99,Homeseer,2013-01-31 18:27:00,
2013-01-31 13:32:00,46.3,35.4,28.68,North,-999,-999.0,-999.0,56,-99.99,,,-99.99,Homeseer,2013-01-31 18:32:00,
2013-01-31 13:37:00,45.0,33.9,28.69,North,-999,-999.0,-999.0,55,-99.99,,,-99.99,Homeseer,2013-01-31 18:37:00,
2013-01-31 13:42:00,44.8,34.0,28.69,North,-999,-999.0,-999.0,56,-99.99,,,-99.99,Homeseer,2013-01-31 18:42:00,
2013-01-31 13:47:00,44.8,34.0,28.70,North,-999,-999.0,-999.0,56,-99.99,,,-99.99,Homeseer,2013-01-31 18:47:00,
2013-01-31 13:52:00,44.7,32.9,28.69,North,-999,-999.0,-999.0,53,-99.99,,,-99.99,Homeseer,2013-01-31 18:52:00,
2013-01-31 13:57:00,45.5,33.3,28.69,North,-999,-999.0,-999.0,52,-99.99,,,-99.99,Homeseer,2013-01-31 18:57:00,
2013-01-31 14:02:00,46.0,33.8,28.71,North,-999,-999.0,-999.0,52,-99.99,,,-99.99,Homeseer,2013-01-31 19:02:00,
2013-01-31 14:07:00,46.7,34.1,28.71,North,-999,-999.0,-999.0,51,-99.99,,,-99.99,Homeseer,2013-01-31 19:07:00,
2013-01-31 14:12:00,47.2,33.1,28.73,North,-999,-999.0,-999.0,47,-99.99,,,-99.99,Homeseer,2013-01-31 19:12:00,
2013-01-31 14:17:00,46.6,31.4,28.73,North,-999,-999.0,-999.0,44,-99.99,,,-99.99,Homeseer,2013-01-31 19:17:00,
2013-01-31 14:22:00,45.6,30.1,28.72,North,-999,-999.0,-999.0,43,-99.99,,,-99.99,Homeseer,2013-01-31 19:22:00,
2013-01-31 14:27:00,45.6,30.1,28.72,North,-999,-999.0,-999.0,43,-99.99,,,-99.99,Homeseer,2013-01-31 19:27:00,
2013-01-31 14:32:00,45.4,29.9,28.73,North,-999,-999.0,-999.0,43,-99.99,,,-99.99,Homeseer,2013-01-31 19:32:00,
2013-01-31 14:37:00,45.2,29.7,28.74,North,-999,-999.0,-999.0,43,-99.99,,,-99.99,Homeseer,2013-01-31 19:37:00,
2013-01-31 14:42:00,44.7,29.7,28.73,North,-999,-999.0,-999.0,44,-99.99,,,-99.99,Homeseer,2013-01-31 19:42:00,
2013-01-31 14:47:00,44.4,29.0,28.75,North,-999,-999.0,-999.0,43,-99.99,,,-99.99,Homeseer,2013-01-31 19:47:00,
2013-01-31 14:52:00,44.2,28.4,28.76,North,-999,-999.0,-999.0,42,-99.99,,,-99.99,Homeseer,2013-01-31 19:52:00,
2013-01-31 14:57:00,43.7,28.0,28.77,North,-999,-999.0,-999.0,42,-99.99,,,-99.99,Homeseer,2013-01-31 19:57:00,
2013-01-31 15:02:00,44.2,29.2,28.77,North,-999,-999.0,-999.0,44,-99.99,,,-99.99,Homeseer,2013-01-31 20:02:00,
2013-01-31 15:07:00,43.9,29.3,28.79,North,-999,-999.0,-999.0,45,-99.99,,,-99.99,Homeseer,2013-01-31 20:07:00,
2013-01-31 15:12:00,44.0,30.2,28.79,North,-999,-999.0,-999.0,47,-99.99,,,-99.99,Homeseer,2013-01-31 20:12:00,
2013-01-31 15:17:00,43.0,30.0,28.79,North,-999,-999.0,-999.0,49,-99.99,,,-99.99,Homeseer,2013-01-31 20:17:00,
2013-01-31 15:22:00,42.0,29.1,28.81,North,-999,-999.0,-999.0,49,-99.99,,,-99.99,Homeseer,2013-01-31 20:22:00,
2013-01-31 15:27:00,42.0,29.4,28.81,North,-999,-999.0,-999.0,50,-99.99,,,-99.99,Homeseer,2013-01-31 20:27:00,
2013-01-31 15:32:00,42.1,29.2,28.82,North,-999,-999.0,-999.0,49,-99.99,,,-99.99,Homeseer,2013-01-31 20:32:00,
2013-01-31 15:37:00,42.1,29.2,28.83,North,-999,-999.0,-999.0,49,-99.99,,,-99.99,Homeseer,2013-01-31 20:37:00,
2013-01-31 15:42:00,42.1,29.5,28.83,North,-999,-999.0,-999.0,50,-99.99,,,-99.99,Homeseer,2013-01-31 20:42:00,
2013-01-31 15:47:00,41.9,30.0,28.83,North,-999,-999.0,-999.0,52,-99.99,,,-99.99,Homeseer,2013-01-31 20:47:00,
2013-01-31 15:52:00,41.9,29.0,28.83,North,-999,-999.0,-999.0,49,-99.99,,,-99.99,Homeseer,2013-01-31 20:52:00,
2013-01-31 15:57:00,41.9,29.3,28.84,North,-999,-999.0,-999.0,50,-99.99,,,-99.99,Homeseer,2013-01-31 20:57:00,
2013-01-31 16:02:00,42.0,29.8,28.86,North,-999,-999.0,-999.0,51,-99.99,,,-99.99,Homeseer,2013-01-31 21:02:00,
2013-01-31 16:07:00,41.7,29.5,28.85,North,-999,-999.0,-999.0,51,-99.99,,,-99.99,Homeseer,2013-01-31 21:07:00,
2013-01-31 16:12:00,41.6,29.4,28.86,North,-999,-999.0,-999.0,51,-99.99,,,-99.99,Homeseer,2013-01-31 21:12:00,
2013-01-31 16:17:00,41.3,30.1,28.87,North,-999,-999.0,-999.0,54,-99.99,,,-99.99,Homeseer,2013-01-31 21:17:00,
2013-01-31 16:22:00,41.1,28.6,28.87,North,-999,-999.0,-999.0,50,-99.99,,,-99.99,Homeseer,2013-01-31 21:22:00,
2013-01-31 16:27:00,41.2,28.3,28.87,North,-999,-999.0,-999.0,49,-99.99,,,-99.99,Homeseer,2013-01-31 21:27:00,
2013-01-31 16:32:00,41.2,29.0,28.87,North,-999,-999.0,-999.0,51,-99.99,,,-99.99,Homeseer,2013-01-31 21:32:00,
2013-01-31 16:37:00,40.9,28.8,28.87,North,-999,-999.0,-999.0,51,-99.99,,,-99.99,Homeseer,2013-01-31 21:37:00,
2013-01-31 16:42:00,40.7,28.2,28.87,North,-999,-999.0,-999.0,50,-99.99,,,-99.99,Homeseer,2013-01-31 21:42:00,
2013-01-31 16:47:00,40.4,28.3,28.89,North,-999,-999.0,-999.0,51,-99.99,,,-99.99,Homeseer,2013-01-31 21:47:00,
2013-01-31 16:52:00,40.2,28.8,28.89,North,-999,-999.0,-999.0,53,-99.99,,,-99.99,Homeseer,2013-01-31 21:52:00,
2013-01-31 16:57:00,40.2,28.8,28.89,North,-999,-999.0,-999.0,53,-99.99,,,-99.99,Homeseer,2013-01-31 21:57:00,
2013-01-31 17:02:00,40.2,28.5,28.90,North,-999,-999.0,-999.0,52,-99.99,,,-99.99,Homeseer,2013-01-31 22:02:00,
2013-01-31 17:07:00,40.0,28.9,28.91,North,-999,-999.0,-999.0,54,-99.99,,,-99.99,Homeseer,2013-01-31 22:07:00,
2013-01-31 17:12:00,40.2,29.1,28.92,North,-999,-999.0,-999.0,54,-99.99,,,-99.99,Homeseer,2013-01-31 22:12:00,
2013-01-31 17:17:00,39.9,29.5,28.93,North,-999,-999.0,-999.0,56,-99.99,,,-99.99,Homeseer,2013-01-31 22:17:00,
2013-01-31 17:22:00,39.5,29.1,28.93,North,-999,-999.0,-999.0,56,-99.99,,,-99.99,Homeseer,2013-01-31 22:22:00,
2013-01-31 17:27:00,39.4,29.0,28.94,North,-999,-999.0,-999.0,56,-99.99,,,-99.99,Homeseer,2013-01-31 22:27:00,
2013-01-31 17:32:00,38.6,28.3,28.94,North,-999,-999.0,-999.0,56,-99.99,,,-99.99,Homeseer,2013-01-31 22:32:00,
2013-01-31 17:37:00,38.9,28.2,28.95,North,-999,-999.0,-999.0,55,-99.99,,,-99.99,Homeseer,2013-01-31 22:37:00,
2013-01-31 17:42:00,38.3,27.4,28.96,North,-999,-999.0,-999.0,54,-99.99,,,-99.99,Homeseer,2013-01-31 22:42:00,
2013-01-31 17:47:00,38.4,27.8,28.96,North,-999,-999.0,-999.0,55,-99.99,,,-99.99,Homeseer,2013-01-31 22:47:00,
2013-01-31 17:52:00,38.3,27.7,28.97,North,-999,-999.0,-999.0,55,-99.99,,,-99.99,Homeseer,2013-01-31 22:52:00,
2013-01-31 17:57:00,38.1,27.8,28.97,North,-999,-999.0,-999.0,56,-99.99,,,-99.99,Homeseer,2013-01-31 22:57:00,
2013-01-31 18:02:00,38.2,28.2,28.97,North,-999,-999.0,-999.0,57,-99.99,,,-99.99,Homeseer,2013-01-31 23:02:00,
2013-01-31 18:07:00,38.2,28.2,28.98,North,-999,-999.0,-999.0,57,-99.99,,,-99.99,Homeseer,2013-01-31 23:07:00,
2013-01-31 18:12:00,37.7,28.0,28.99,North,-999,-999.0,-999.0,58,-99.99,,,-99.99,Homeseer,2013-01-31 23:12:00,
2013-01-31 18:17:00,37.8,28.4,28.99,North,-999,-999.0,-999.0,59,-99.99,,,-99.99,Homeseer,2013-01-31 23:17:00,
2013-01-31 18:22:00,37.4,28.0,29.00,North,-999,-999.0,-999.0,59,-99.99,,,-99.99,Homeseer,2013-01-31 23:22:00,
2013-01-31 18:27:00,37.4,28.3,29.01,North,-999,-999.0,-999.0,60,-99.99,,,-99.99,Homeseer,2013-01-31 23:27:00,
2013-01-31 18:32:00,37.2,28.7,29.00,North,-999,-999.0,-999.0,62,-99.99,,,-99.99,Homeseer,2013-01-31 23:32:00,
2013-01-31 18:37:00,37.0,29.1,29.01,North,-999,-999.0,-999.0,64,-99.99,,,-99.99,Homeseer,2013-01-31 23:37:00,
2013-01-31 18:42:00,37.0,29.3,29.02,North,-999,-999.0,-999.0,65,-99.99,,,-99.99,Homeseer,2013-01-31 23:42:00,
2013-01-31 18:47:00,36.7,28.8,29.02,North,-999,-999.0,-999.0,64,-99.99,,,-99.99,Homeseer,2013-01-31 23:47:00,
2013-01-31 18:52:00,36.6,28.9,29.03,North,-999,-999.0,-999.0,65,-99.99,,,-99.99,Homeseer,2013-01-31 23:52:00,
2013-01-31 18:57:00,36.4,28.8,29.02,North,-999,-999.0,-999.0,65,-99.99,,,-99.99,Homeseer,2013-01-31 23:57:00,
2013-01-31 19:02:00,36.2,27.8,29.02,North,-999,-999.0,-999.0,62,-99.99,,,-99.99,Homeseer,2013-02-01 00:02:00,
2013-01-31 19:07:00,36.2,28.0,29.02,North,-999,-999.0,-999.0,63,-99.99,,,-99.99,Homeseer,2013-02-01 00:07:00,
2013-01-31 19:12:00,36.2,28.0,29.03,North,-999,-999.0,-999.0,63,-99.99,,,-99.99,Homeseer,2013-02-01 00:12:00,
2013-01-31 19:17:00,36.0,27.8,29.04,North,-999,-999.0,-999.0,63,-99.99,,,-99.99,Homeseer,2013-02-01 00:17:00,
2013-01-31 19:22:00,36.4,27.9,29.05,North,-999,-999.0,-999.0,62,-99.99,,,-99.99,Homeseer,2013-02-01 00:22:00,
2013-01-31 19:27:00,35.8,27.7,29.06,North,-999,-999.0,-999.0,63,-99.99,,,-99.99,Homeseer,2013-02-01 00:27:00,
2013-01-31 19:32:00,35.9,27.5,29.07,North,-999,-999.0,-999.0,62,-99.99,,,-99.99,Homeseer,2013-02-01 00:32:00,
2013-01-31 19:37:00,35.8,27.4,29.07,North,-999,-999.0,-999.0,62,-99.99,,,-99.99,Homeseer,2013-02-01 00:37:00,
2013-01-31 19:42:00,36.0,27.3,29.07,North,-999,-999.0,-999.0,61,-99.99,,,-99.99,Homeseer,2013-02-01 00:42:00,
2013-01-31 19:47:00,36.0,27.3,29.07,North,-999,-999.0,-999.0,61,-99.99,,,-99.99,Homeseer,2013-02-01 00:47:00,
2013-01-31 19:52:00,35.4,26.2,29.07,North,-999,-999.0,-999.0,59,-99.99,,,-99.99,Homeseer,2013-02-01 00:52:00,
2013-01-31 19:57:00,35.7,26.7,29.07,North,-999,-999.0,-999.0,60,-99.99,,,-99.99,Homeseer,2013-02-01 00:57:00,
2013-01-31 20:02:00,35.5,26.8,29.07,North,-999,-999.0,-999.0,61,-99.99,,,-99.99,Homeseer,2013-02-01 01:02:00,
2013-01-31 20:07:00,35.4,27.0,29.07,North,-999,-999.0,-999.0,62,-99.99,,,-99.99,Homeseer,2013-02-01 01:07:00,
2013-01-31 20:12:00,35.0,26.6,29.08,North,-999,-999.0,-999.0,62,-99.99,,,-99.99,Homeseer,2013-02-01 01:12:00,
2013-01-31 20:17:00,35.2,26.8,29.09,North,-999,-999.0,-999.0,62,-99.99,,,-99.99,Homeseer,2013-02-01 01:17:00,
2013-01-31 20:22:00,34.7,26.1,29.09,North,-999,-999.0,-999.0,61,-99.99,,,-99.99,Homeseer,2013-02-01 01:22:00,
2013-01-31 20:27:00,35.0,26.4,29.09,North,-999,-999.0,-999.0,61,-99.99,,,-99.99,Homeseer,2013-02-01 01:27:00,
2013-01-31 20:32:00,34.8,25.9,29.09,North,-999,-999.0,-999.0,60,-99.99,,,-99.99,Homeseer,2013-02-01 01:32:00,
2013-01-31 20:37:00,34.8,26.2,29.10,North,-999,-999.0,-999.0,61,-99.99,,,-99.99,Homeseer,2013-02-01 01:37:00,
2013-01-31 20:42:00,34.4,25.2,29.11,North,-999,-999.0,-999.0,59,-99.99,,,-99.99,Homeseer,2013-02-01 01:42:00,
2013-01-31 20:47:00,34.5,25.6,29.11,North,-999,-999.0,-999.0,60,-99.99,,,-99.99,Homeseer,2013-02-01 01:47:00,
2013-01-31 20:52:00,34.6,26.0,29.11,North,-999,-999.0,-999.0,61,-99.99,,,-99.99,Homeseer,2013-02-01 01:52:00,
2013-01-31 20:57:00,34.5,25.9,29.11,North,-999,-999.0,-999.0,61,-99.99,,,-99.99,Homeseer,2013-02-01 01:57:00,
2013-01-31 21:02:00,34.5,26.2,29.11,North,-999,-999.0,-999.0,62,-99.99,,,-99.99,Homeseer,2013-02-01 02:02:00,
2013-01-31 21:07:00,34.4,26.3,29.12,North,-999,-999.0,-999.0,63,-99.99,,,-99.99,Homeseer,2013-02-01 02:07:00,
2013-01-31 21:12:00,34.4,26.3,29.13,North,-999,-999.0,-999.0,63,-99.99,,,-99.99,Homeseer,2013-02-01 02:12:00,
2013-01-31 21:17:00,34.0,25.7,29.13,North,-999,-999.0,-999.0,62,-99.99,,,-99.99,Homeseer,2013-02-01 02:17:00,
2013-01-31 21:22:00,33.9,25.9,29.14,North,-999,-999.0,-999.0,63,-99.99,,,-99.99,Homeseer,2013-02-01 02:22:00,
2013-01-31 21:27:00,34.1,26.1,29.15,North,-999,-999.0,-999.0,63,-99.99,,,-99.99,Homeseer,2013-02-01 02:27:00,
2013-01-31 21:32:00,33.6,25.6,29.14,North,-999,-999.0,-999.0,63,-99.99,,,-99.99,Homeseer,2013-02-01 02:32:00,
2013-01-31 21:37:00,33.7,25.9,29.15,North,-999,-999.0,-999.0,64,-99.99,,,-99.99,Homeseer,2013-02-01 02:37:00,
2013-01-31 21:42:00,33.6,25.8,29.15,North,-999,-999.0,-999.0,64,-99.99,,,-99.99,Homeseer,2013-02-01 02:42:00,
2013-01-31 21:47:00,33.0,24.5,29.15,North,-999,-999.0,-999.0,61,-99.99,,,-99.99,Homeseer,2013-02-01 02:47:00,
2013-01-31 21:52:00,33.2,24.7,29.16,North,-999,-999.0,-999.0,61,-99.99,,,-99.99,Homeseer,2013-02-01 02:52:00,
2013-01-31 21:57:00,33.0,24.2,29.16,North,-999,-999.0,-999.0,60,-99.99,,,-99.99,Homeseer,2013-02-01 02:57:00,
2013-01-31 22:02:00,33.0,23.6,29.17,North,-999,-999.0,-999.0,58,-99.99,,,-99.99,Homeseer,2013-02-01 03:02:00,
2013-01-31 22:07:00,32.9,23.5,29.16,North,-999,-999.0,-999.0,58,-99.99,,,-99.99,Homeseer,2013-02-01 03:07:00,
2013-01-31 22:12:00,33.1,23.7,29.16,North,-999,-999.0,-999.0,58,-99.99,,,-99.99,Homeseer,2013-02-01 03:12:00,
2013-01-31 22:17:00,32.9,23.8,29.17,North,-999,-999.0,-999.0,59,-99.99,,,-99.99,Homeseer,2013-02-01 03:17:00,
2013-01-31 22:22:00,32.9,24.1,29.17,North,-999,-999.0,-999.0,60,-99.99,,,-99.99,Homeseer,2013-02-01 03:22:00,
2013-01-31 22:27:00,32.8,23.7,29.18,North,-999,-999.0,-999.0,59,-99.99,,,-99.99,Homeseer,2013-02-01 03:27:00,
2013-01-31 22:32:00,32.9,24.1,29.17,North,-999,-999.0,-999.0,60,-99.99,,,-99.99,Homeseer,2013-02-01 03:32:00,
2013-01-31 22:37:00,33.1,24.0,29.18,North,-999,-999.0,-999.0,59,-99.99,,,-99.99,Homeseer,2013-02-01 03:37:00,
2013-01-31 22:42:00,33.0,23.9,29.17,North,-999,-999.0,-999.0,59,-99.99,,,-99.99,Homeseer,2013-02-01 03:42:00,
2013-01-31 22:47:00,32.9,24.1,29.18,North,-999,-999.0,-999.0,60,-99.99,,,-99.99,Homeseer,2013-02-01 03:47:00,
2013-01-31 22:52:00,32.4,23.6,29.19,North,-999,-999.0,-999.0,60,-99.99,,,-99.99,Homeseer,2013-02-01 03:52:00,
2013-01-31 22:57:00,32.4,23.6,29.18,North,-999,-999.0,-999.0,60,-99.99,,,-99.99,Homeseer,2013-02-01 03:57:00,
2013-01-31 23:02:00,32.7,23.6,29.18,North,-999,-999.0,-999.0,59,-99.99,,,-99.99,Homeseer,2013-02-01 04:02:00,
2013-01-31 23:07:00,32.6,23.8,29.19,North,-999,-999.0,-999.0,60,-99.99,,,-99.99,Homeseer,2013-02-01 04:07:00,
2013-01-31 23:12:00,32.6,23.5,29.17,North,-999,-999.0,-999.0,59,-99.99,,,-99.99,Homeseer,2013-02-01 04:12:00,
2013-01-31 23:17:00,32.1,23.1,29.18,North,-999,-999.0,-999.0,59,-99.99,,,-99.99,Homeseer,2013-02-01 04:17:00,
2013-01-31 23:22:00,32.3,23.5,29.19,North,-999,-999.0,-999.0,60,-99.99,,,-99.99,Homeseer,2013-02-01 04:22:00,
2013-01-31 23:27:00,32.6,23.3,29.17,North,-999,-999.0,-999.0,58,-99.99,,,-99.99,Homeseer,2013-02-01 04:27:00,
2013-01-31 23:32:00,32.6,23.8,29.19,North,-999,-999.0,-999.0,60,-99.99,,,-99.99,Homeseer,2013-02-01 04:32:00,
2013-01-31 23:37:00,32.1,23.4,29.19,North,-999,-999.0,-999.0,60,-99.99,,,-99.99,Homeseer,2013-02-01 04:37:00,
2013-01-31 23:42:00,32.3,23.8,29.19,North,-999,-999.0,-999.0,61,-99.99,,,-99.99,Homeseer,2013-02-01 04:42:00,
2013-01-31 23:47:00,32.1,23.9,29.19,North,-999,-999.0,-999.0,62,-99.99,,,-99.99,Homeseer,2013-02-01 04:47:00,
2013-01-31 23:52:00,31.7,23.8,29.19,North,-999,-999.0,-999.0,63,-99.99,,,-99.99,Homeseer,2013-02-01 04:52:00,
2013-01-31 23:57:00,32.0,24.3,29.20,North,-999,-999.0,-999.0,64,-99.99,,,-99.99,Homeseer,2013-02-01 04:57:00,